AirNav   Air Wisconsin Up To $57,000 Bonus
 
 1072 users online  

MO19 American Legion-Village of Centertown Heliport
Centertown, Missouri, USA

GOING TO CENTERTOWN?


FAA INFORMATION EFFECTIVE 25 MARCH 2021

Location

FAA Identifier: MO19
Lat/Long: 38-36-47.1100N 092-24-43.6700W
38-36.785167N 092-24.727833W
38.6130861,-92.4121306
(estimated)
Elevation: 805 ft. / 245 m (estimated)
Variation: 02E (2000)
Time zone: UTC -5 (UTC -6 during Standard Time)
Zip code: 65023

Heliport Operations

Heliport use: Private use. Permission required prior to landing
Activation date: 12/2000
Control tower: no
ARTCC: KANSAS CITY CENTER
FSS: COLUMBIA FLIGHT SERVICE STATION
Attendance: UNATNDD
Wind indicator: lighted
Segmented circle: no
Lights: ACTVT PERIMETER LGTS - 122.9.

Heliport Communications

WX ASOS at JEF (12 nm E): 133.625 (573-635-9266)
WX ASOS at COU (15 nm NE): 128.45 (573-499-1400)

Nearby radio navigation aids

VOR radial/distance  VOR name  Freq  Var
COUr217/14.9COLUMBIA VOR/DME110.2000E
HLVr198/32.8HALLSVILLE VORTAC114.2006E
SHYr015/35.5SUNSHINE VOR/DME108.4000E

Heliport Services

Runway Information

Helipad H1

Dimensions: 30 x 30 ft. / 9 x 9 m
Surface: concrete, in good condition
Runway edge lights: PERI
Traffic pattern: leftleft

Heliport Ownership and Management from official FAA records

Ownership: Privately-owned
Owner: AMERICAN LEGION/VILLAGE CENTERTOWN
531 STATE RT. U
CENTERTOWN, MO 65023
Phone 573-584-3844
Manager: ROBERT H. PRICE
52337 BIRD HAVEN RD
CENTERTOWN, MO 65023
Phone 573-584-3844

Additional Remarks

A52-H1 H1-25 FT TREE 190 FT SW & 39 FT TREES 260 FT SW OF HELIPAD.
FOR CD CTC MIZZOU APCH AT 417-868-5620/5619.

Instrument Procedures

There are no published instrument procedures at MO19.

Some nearby airports with instrument procedures:

KJEF - Jefferson City Memorial Airport (12 nm E)
KCOU - Columbia Regional Airport (15 nm NE)
H79 - Eldon Model Airpark (17 nm SW)
KFTT - Elton Hensley Memorial Airport (23 nm NE)
KVER - Jesse Viertel Memorial Airport (24 nm NW)
 
Loc | Ops | Rwys | IFR | FBO | Links
Com | Nav | Svcs | Stats | Notes
Area around MO19 (American Legion-Village of Centertown Heliport)
 
Road maps at: MapQuest Bing Google
 
Aerial photo
No photo
 
Sectional chart

 
Airport distance calculator
Flying to American Legion-Village of Centertown Heliport? Find the distance to fly.

From to MO19

Sunrise and sunset
Times for 17-Apr-2021
 Local
(UTC-5)
 Zulu
(UTC)
Morning civil twilight06:0411:04
Sunrise06:3211:32
Sunset19:4700:47
Evening civil twilight20:1401:14

Current date and time
Zulu (UTC)  18-Apr-2021 01:20:14
Local (UTC-5)  17-Apr-2021 20:20:14
 
METAR
KJEF 
12nm E 
180053Z 32004KT 10SM FEW035 BKN060 OVC075 13/06 A3001 RMK AO2 SLP153 T01280061
KCOU 
15nm NE 
180054Z 27004KT 10SM CLR 10/08 A3000 RMK AO2 RAE08 SLP162 P0000 T01000078
KVER 
24nm NW 
180055Z AUTO 33004KT 7SM RA 12/09 A3003 RMK AO2 P0001 T01180090
TAF
KCOU 
15nm NE 
171758Z 1718/1818 30007KT P6SM VCSH SCT025 BKN035 FM180100 VRB03KT P6SM SCT035 FM180900 VRB03KT 6SM BR SCT002 SCT060
NOTAMs
Click for the latest NOTAMs
NOTAMs are issued by the DoD/FAA and will open in a separate window not controlled by AirNav.

 

 
 

Would you like to see your business listed on this page?

 If your business provides an interesting product or service to pilots, flight crews, aircraft, or users of the American Legion-Village of Centertown Heliport, you should consider listing it here.  To start the listing process, click on the button below
 
Add a business
 

Other Pages about American Legion-Village of Centertown Heliport

Update a link
 
Copyright © AirNav, LLC. All rights reserved. Privacy Policy  Contact